This is the latest recevied weather packets stored in our database for station/object N4DBJ. If no packets are shown the sender has not sent any weather packets the latest 10 day(s).
| Time | Temp. | Humidity | Pressure | Rain* | Wind** | Luminosity | Snow |
|---|---|---|---|---|---|---|---|
| 1777914877 | 25° C | 53% | 1009.7 hPa | 0 mm | - | 760 W/m² | - |
| 1777914574 | 25° C | 55% | 1009.9 hPa | 0 mm | - | 742 W/m² | - |
| 1777914270 | 25.56° C | 52% | 1010 hPa | 0 mm | - | 750 W/m² | - |
| 1777913967 | 25° C | 58% | 1009.9 hPa | 0 mm | - | 779 W/m² | - |
| 1777913664 | 25° C | 52% | 1010.3 hPa | 0 mm | - | 792 W/m² | - |
| 1777913361 | 25° C | 52% | 1010 hPa | 0 mm | - | 797 W/m² | - |
| 1777913057 | 25° C | 53% | 1010.2 hPa | 0 mm | - | 805 W/m² | - |
| 1777912753 | 25° C | 50% | 1010.2 hPa | 0 mm | - | 826 W/m² | - |
| 1777912449 | 25° C | 52% | 1010.2 hPa | 0 mm | - | 833 W/m² | - |
| 1777912146 | 24.44° C | 54% | 1010.1 hPa | 0 mm | - | 824 W/m² | - |
| 1777911842 | 24.44° C | 55% | 1010.5 hPa | 0 mm | - | 799 W/m² | - |
| 1777911539 | 24.44° C | 56% | 1010.6 hPa | 0 mm | - | 834 W/m² | - |
| 1777911235 | 23.89° C | 57% | 1010.6 hPa | 0 mm | - | 856 W/m² | - |
| 1777910932 | 23.89° C | 56% | 1010.6 hPa | 0 mm | - | 861 W/m² | - |
| 1777910629 | 23.33° C | 56% | 1010.7 hPa | 0 mm | - | 858 W/m² | - |
| 1777910326 | 23.33° C | 55% | 1010.8 hPa | 0 mm | - | 849 W/m² | - |
| 1777910023 | 23.89° C | 56% | 1010.5 hPa | 0 mm | - | 893 W/m² | - |
| 1777909720 | 23.33° C | 54% | 1010.8 hPa | 0 mm | - | 861 W/m² | - |
| 1777909417 | 23.33° C | 56% | 1010.9 hPa | 0 mm | - | 777 W/m² | - |
| 1777909116 | 23.33° C | 59% | 1010.8 hPa | 0 mm | - | 780 W/m² | - |
| 1777908813 | 22.78° C | 58% | 1010.7 hPa | 0 mm | - | 789 W/m² | - |
| 1777908509 | 21.67° C | 61% | 1010.7 hPa | 0 mm | - | 684 W/m² | - |
| 1777908206 | 22.22° C | 58% | 1010.9 hPa | 0 mm | - | 750 W/m² | - |
| 1777907902 | 22.22° C | 61% | 1010.9 hPa | 0 mm | - | 714 W/m² | - |
| 1777907598 | 21.67° C | 61% | 1011.1 hPa | 0 mm | - | 710 W/m² | - |
* Rain latest hour (hover to see other rain measurements)
** Current wind speed in m/s (hover to see current wind gust speed)